CHH6510 ZSSS-ZJHK

Flight info

Callsign CHH6510
Flight time N/A
Altitude 40100
Route NXD61D NXD W131 AKDIM A470 DUBGO W134 ELNEX A599 PLT W19 NOMAR W18 NLG W23 ZUH R200 BIGRO G221 GIVIV W605 DOMGO
Aircraft A346/H-SDE2E3FGHIJ3J4J5M1RWXY/LB1D1

Departure

Time 2026-05-06 06:22
Airport Shanghai Hongqiao International Airport (ZSSS)

Arrival

Time N/A
Airport Haikou Meilan International Airport (ZJHK)
Time Latitude Longitude Altitude Speed Heading
2026-05-06 05:39 31.19515 121.32559 23 ft 0 kts 225°
2026-05-06 06:10 31.19520 121.32565 23 ft 2 kts 225°
2026-05-06 06:10 31.19531 121.32577 23 ft 2 kts 225°
2026-05-06 06:10 31.19541 121.32590 23 ft 2 kts 225°
2026-05-06 06:11 31.19552 121.32603 23 ft 2 kts 225°
2026-05-06 06:11 31.19562 121.32615 23 ft 2 kts 225°
2026-05-06 06:11 31.19573 121.32628 23 ft 1 kts 225°
2026-05-06 06:11 31.19581 121.32637 23 ft 2 kts 222°
2026-05-06 06:12 31.19593 121.32648 23 ft 2 kts 209°
2026-05-06 06:12 31.19607 121.32655 23 ft 2 kts 199°
2026-05-06 06:12 31.19622 121.32661 23 ft 2 kts 189°
2026-05-06 06:12 31.19637 121.32662 23 ft 1 kts 179°
2026-05-06 06:13 31.19642 121.32661 23 ft 0 kts 176°
2026-05-06 06:15 31.19641 121.32661 23 ft 0 kts 176°
2026-05-06 06:15 31.19621 121.32663 23 ft 4 kts 176°
2026-05-06 06:15 31.19589 121.32681 23 ft 4 kts 134°
2026-05-06 06:15 31.19577 121.32724 23 ft 7 kts 94°
2026-05-06 06:16 31.19576 121.32800 23 ft 11 kts 87°
2026-05-06 06:16 31.19580 121.32898 23 ft 13 kts 87°
2026-05-06 06:16 31.19584 121.33003 23 ft 9 kts 85°
2026-05-06 06:16 31.19620 121.33053 23 ft 9 kts 20°
2026-05-06 06:17 31.19699 121.33060 23 ft 12 kts 358°
2026-05-06 06:17 31.19799 121.33055 23 ft 15 kts 357°
2026-05-06 06:17 31.19917 121.33049 23 ft 17 kts 357°
2026-05-06 06:17 31.20048 121.33041 23 ft 19 kts 357°
2026-05-06 06:18 31.20192 121.33034 23 ft 21 kts 357°
2026-05-06 06:18 31.20351 121.33025 23 ft 23 kts 357°
2026-05-06 06:18 31.20513 121.33016 23 ft 23 kts 357°
2026-05-06 06:18 31.20686 121.33007 23 ft 25 kts 357°
2026-05-06 06:19 31.20873 121.32996 23 ft 27 kts 357°
2026-05-06 06:19 31.21039 121.32987 23 ft 22 kts 357°
2026-05-06 06:19 31.21169 121.32980 23 ft 12 kts 357°
2026-05-06 06:19 31.21242 121.32978 23 ft 10 kts
2026-05-06 06:20 31.21284 121.33031 23 ft 10 kts 75°
2026-05-06 06:20 31.21293 121.33115 23 ft 10 kts 86°
2026-05-06 06:20 31.21272 121.33156 23 ft 7 kts 147°
2026-05-06 06:20 31.21223 121.33170 23 ft 3 kts 176°
2026-05-06 06:21 31.21222 121.33170 23 ft 0 kts 176°
2026-05-06 06:21 31.21213 121.33170 23 ft 3 kts 176°
2026-05-06 06:21 31.21040 121.33180 23 ft 62 kts 176°
2026-05-06 06:22 31.20353 121.33217 24 ft 133 kts 177°
2026-05-06 06:22 31.19273 121.33272 362 ft 159 kts 177°
2026-05-06 06:22 31.18188 121.33328 989 ft 159 kts 175°
2026-05-06 06:22 31.17087 121.33383 1611 ft 161 kts 175°
2026-05-06 06:23 31.15983 121.33431 2142 ft 159 kts 175°
2026-05-06 06:23 31.14873 121.33483 2589 ft 161 kts 175°
2026-05-06 06:23 31.13752 121.33536 3027 ft 163 kts 175°
2026-05-06 06:23 31.12591 121.33590 3380 ft 174 kts 176°
2026-05-06 06:24 31.11320 121.33648 3731 ft 190 kts 176°
2026-05-06 06:24 31.09954 121.33709 4159 ft 205 kts 177°
2026-05-06 06:24 31.08444 121.33776 4570 ft 225 kts 177°
2026-05-06 06:24 31.06817 121.33672 4986 ft 247 kts 195°
2026-05-06 06:25 31.05242 121.32686 5546 ft 267 kts 223°
2026-05-06 06:25 31.04216 121.30888 6347 ft 277 kts 251°
2026-05-06 06:25 31.04453 121.26459 8268 ft 282 kts 282°
2026-05-06 06:26 31.04874 121.24253 9204 ft 285 kts 282°
2026-05-06 06:26 31.05294 121.21994 10151 ft 288 kts 282°
2026-05-06 06:26 31.05721 121.19687 10848 ft 299 kts 282°
2026-05-06 06:26 31.06169 121.17253 11314 ft 317 kts 282°
2026-05-06 06:27 31.06592 121.14667 11716 ft 336 kts 277°
2026-05-06 06:27 31.06627 121.11872 12147 ft 355 kts 265°
2026-05-06 06:27 31.06157 121.08989 12759 ft 365 kts 256°
2026-05-06 06:27 31.05463 121.06152 13570 ft 369 kts 255°
2026-05-06 06:28 31.04735 121.03268 14395 ft 372 kts 255°
2026-05-06 06:28 31.04005 121.00378 15210 ft 376 kts 255°
2026-05-06 06:28 31.03276 120.97472 15970 ft 379 kts 255°
2026-05-06 06:28 31.02536 120.94506 16769 ft 382 kts 256°
2026-05-06 06:29 31.01798 120.91545 17556 ft 384 kts 256°
2026-05-06 06:29 31.01056 120.88563 18295 ft 387 kts 256°
2026-05-06 06:29 31.00304 120.85538 19018 ft 390 kts 256°
2026-05-06 06:29 30.99550 120.82508 19700 ft 394 kts 256°
2026-05-06 06:30 30.98779 120.79417 20371 ft 397 kts 256°
2026-05-06 06:30 30.98017 120.76356 21044 ft 401 kts 256°
2026-05-06 06:30 30.97242 120.73243 21695 ft 404 kts 256°
2026-05-06 06:30 30.96451 120.70083 22310 ft 408 kts 256°
2026-05-06 06:31 30.95652 120.66893 22925 ft 412 kts 257°
2026-05-06 06:31 30.94850 120.63686 23562 ft 415 kts 257°
2026-05-06 06:31 30.94036 120.60438 24193 ft 419 kts 257°
2026-05-06 06:31 30.93222 120.57196 24828 ft 422 kts 257°
2026-05-06 06:32 30.92406 120.53950 25454 ft 425 kts 257°
2026-05-06 06:32 30.91575 120.50643 26068 ft 428 kts 257°
2026-05-06 06:32 30.90707 120.47328 26661 ft 432 kts 253°
2026-05-06 06:32 30.89339 120.44166 27214 ft 442 kts 240°
2026-05-06 06:33 30.87360 120.41361 27787 ft 451 kts 229°
2026-05-06 06:33 30.84913 120.39062 28319 ft 459 kts 220°
2026-05-06 06:33 30.82276 120.36890 28864 ft 462 kts 220°
2026-05-06 06:33 30.79642 120.34747 29374 ft 466 kts 219°
2026-05-06 06:34 30.76955 120.32557 29872 ft 469 kts 219°
2026-05-06 06:34 30.74266 120.30359 30347 ft 473 kts 219°
2026-05-06 06:34 30.71589 120.28165 30924 ft 474 kts 220°
2026-05-06 06:34 30.68916 120.25976 31604 ft 472 kts 220°